User: anonymous   Login
Location: ??
(35.5052°N, 139.7262°E)
Time: 11:55:53
(UTC+00:00)
Language:

ADEOS II - Orbit

View from above orbital plane
View from above orbital plane
View from above satellite
View from above satellite

Ground track
Ground track

The orbit data is extracted from the following two-line orbital elements,

1 27597U 02056A   21270.56892426  .00000074  00000-0  47815-4 0  9997
2 27597  98.5717 213.8735 0002110  73.1732 286.9680 14.27517802978454
Epoch (UTC): 27 September 2021 13:39:15
Eccentricity: 0.0002110
inclination: 98.5717°
perigee height: 798 km
apogee height: 801 km
right ascension of ascending node: 213.8735°
argument of perigee: 73.1732°
revolutions per day: 14.27517802
mean anomaly at epoch: 286.9680°
orbit number at epoch: 97845

The dashed part of the orbit path shows where the satellite is in the earth's shadow,  

DLR